THORAD AGENA D DEB, 4612

Orbit data source: Space-Track

THORAD AGENA D DEB, 4612 is space debris in SSO originally from a launch on Wed, 08 Apr 1970 UTC launched from the Air Force Western Test Range (AFWTR). Debris objects in space refer to the collection of defunct objects orbiting the Earth. Examples of debris include non-operational satellites, rocket bodies, and fragments generated from explosions, collisions, or faulty payload assembly.

Loading next visibility...
Identifier
4612, 1970-025Q
Orbit
SSO
Country
Flag of USUS
Related business
Manufacturer
Unknown
Mission
Spacecraft
Bus & Motor
Unknown
Mass
Unknown
Launch date (UTC)
1970-04-08 (56 years ago)
Launch vehicle
Unknown
Launch site
Air Force Western Test Range (AFWTR)
Object type
Payload
Rocket body
Debris
Shape & HBR
Unknown shape, 0.1 m
Radar Cross Section
Small (<0.1 m²)

Expand to show TLE details & history
Last TLE update: 15 hours ago

TLE from 15 hours ago
0 THORAD AGENA D DEB
1 04612U 70025Q   25292.25481595  .00001632  00000-0  10443-2 0  9992
2 04612  99.6554 191.9498 0080712 263.1087  96.0890 14.03423837811129
Epoch: 2025-10-19T06:06Z
TLE epoch observation values (Epoch: 2025-10-19T06:06:56.098Z)
Latitude
-0.00001°
Longitude
72.24195°
Altitude
891.507 km
Speed
7.403 km/s
True Right ascension
12h 47m 47s
True Declination
0° 00' 00"
Sunlit
Object was in daylight at epoch
Visualization orbit readout
Latitude
Unknown
Longitude
Unknown
Altitude
Unknown
Speed
Unknown
Apparent Right ascension
Unknown
Apparent Declination
Unknown
Sunlit
N/A
Visualization observer readout
Local Sidereal Time
15:32:49
Azimuth
Unknown
Elevation
Unknown
Doppler factor
Unknown
Orbital elements
Apogee altitude
937.766 km
Perigee altitude
820.616 km
Semi-major axis
7,257.328 km
Eccentricity
0.00807
Inclination
99.6554°
RAAN
191.9498°
Arg. of periapsis
263.1087°
True anomaly
97.00765°
Mean anomaly
96.089°
Eccentric anomaly
96.54843°
Mean motion
3.51057 °/min
Orbital period
102.55 mins
BSTAR
0.0010443
Loading maneuver chart data...
Computing Atmospheric mass density...

Documentation

Showing up to 5 results
|